User: anonymous   Login
Location: Valdosta
(30.8330°N, 83.2790°W)
Time: 22:45:04
(UTC-04:00)
Language:

Uribyol 2 - Orbit

View from above orbital plane
View from above orbital plane
View from above satellite
View from above satellite

Ground track
Ground track

The orbit data is extracted from the following two-line orbital elements,

1 22828U 93061F   16146.82578221  .00000049  00000-0  35998-4 0  9995
2 22828  98.7428 102.0350 0009725 350.7054   9.3947 14.30590234150559
Epoch (UTC): 25 May 2016 19:49:07
Eccentricity: 0.0009725
inclination: 98.7428°
perigee height: 783 km
apogee height: 797 km
right ascension of ascending node: 102.0350°
argument of perigee: 350.7054°
revolutions per day: 14.30590234
mean anomaly at epoch: 9.3947°
orbit number at epoch: 15055

The dashed part of the orbit path shows where the satellite is in the earth's shadow,  

DLR